Ithaca, NY

3:59 PM EST on February 13, 2016 (GMT -0500)
Tompkins County

Weather History for KITH - February, 2014

Change the Weather History Date:

Tuesday, February 11, 2014

  Actual Average Record
Temperature  
Mean Temperature 10 °F -  
Max Temperature 14 °F 30 °F 57 °F (1999)
Min Temperature 3 °F 10 °F -23 °F (1979)
Degree Days  
Heating Degree Days 54    
Moisture  
Dew Point 2 °F    
Average Humidity 71    
Maximum Humidity 88    
Minimum Humidity 54    
Precipitation  
Precipitation 0.00 in - - ()
Sea Level Pressure  
Sea Level Pressure 30.40 in    
Wind  
Wind Speed 8 mph (NW)    
Max Wind Speed 15 mph    
Max Gust Speed 18 mph    
Visibility 9 miles    
Events Snow    
Averages and records for this station are not official NWS values.
T = Trace of Precipitation, MM = Missing Value Source: NWS Daily Summary

Daily Weather History Graph

Daily Weather History Graph

Search for Another Location

Airport or City:

Trip Planner

Search our weather history database for the weather conditions in past years. The results will help you decide how hot, cold, wet, or windy it might be!

Date:

Astronomy

Feb. 11, 2014 Rise Set
Actual Time 7:07 AM EST 5:32 PM EST
Civil Twilight 6:38 AM EST 6:01 PM EST
Nautical Twilight 6:05 AM EST 6:35 PM EST
Astronomical Twilight 5:33 AM EST 7:07 PM EST
Moon 2:49 PM EST (2/11) 4:45 AM EST (2/11)
Length of Visible Light 11h 23m
Length of Day
10h 24m
Waxing Gibbous, 90% of the Moon is Illuminated
Feb 11
Waxing Gibbous
Feb 14
Full
Feb 22
Last Quarter
Mar 1
New
Mar 8
First Quarter

Hourly Weather History & Observations

Time (EST) Temp. Windchill Dew Point Humidity Pressure Visibility Wind Dir Wind Speed Gust Speed Precip Events Conditions
12:56 AM 8.1 °F -2.0 °F 1.0 °F 73% 30.32 in 10.0 mi NW 5.8 mph - N/A   Overcast
1:03 AM 8.6 °F 2.0 °F 1.4 °F 73% 30.24 in 10.0 mi NW 3.5 mph - N/A   Overcast
1:56 AM 10.0 °F -1.9 °F 2.1 °F 70% 30.32 in 10.0 mi NW 8.1 mph - N/A   Mostly Cloudy
2:06 AM 8.6 °F -4.7 °F 1.4 °F 73% 30.25 in 10.0 mi NW 9.2 mph - N/A   Mostly Cloudy
2:56 AM 9.1 °F -4.0 °F 1.0 °F 70% 30.32 in 10.0 mi NW 9.2 mph - N/A   Mostly Cloudy
3:12 AM 8.6 °F -6.3 °F 1.4 °F 73% 30.25 in 10.0 mi WNW 11.5 mph - N/A   Partly Cloudy
3:56 AM 7.2 °F -6.4 °F 1.0 °F 76% 30.32 in 10.0 mi West 9.2 mph - N/A   Clear
4:56 AM 9.1 °F -5.6 °F 1.0 °F 70% 30.34 in 10.0 mi West 11.5 mph - N/A   Overcast
5:56 AM 9.1 °F -4.9 °F 1.0 °F 70% 30.35 in 10.0 mi West 10.4 mph - N/A   Overcast
6:20 AM 8.6 °F 0.1 °F 1.4 °F 73% 30.28 in 10.0 mi NW 4.6 mph - N/A   Mostly Cloudy
6:56 AM 9.1 °F -6.4 °F 2.1 °F 73% 30.36 in 10.0 mi WNW 12.7 mph - N/A   Mostly Cloudy
7:56 AM 8.1 °F -5.3 °F 1.0 °F 73% 30.40 in 10.0 mi WNW 9.2 mph - N/A   Overcast
8:56 AM 9.1 °F -4.0 °F 2.1 °F 73% 30.41 in 10.0 mi West 9.2 mph - N/A   Mostly Cloudy
9:56 AM 11.1 °F -2.4 °F 4.1 °F 73% 30.42 in 7.0 mi NW 10.4 mph - 0.00 in Snow Light Snow Showers
10:56 AM 12.0 °F -1.3 °F 3.0 °F 67% 30.43 in 10.0 mi NNW 10.4 mph - 0.00 in   Mostly Cloudy
11:56 AM 13.1 °F -1.4 °F 5.0 °F 70% 30.43 in 5.0 mi NW 12.7 mph - 0.00 in Snow Light Snow Showers
12:56 PM 14.0 °F -1.4 °F 3.0 °F 62% 30.42 in 10.0 mi WNW 15.0 mph - 0.00 in   Mostly Cloudy
1:56 PM 14.0 °F 1.2 °F 0.1 °F 54% 30.40 in 10.0 mi NNW 10.4 mph - 0.00 in Snow Light Snow Showers
2:56 PM 14.0 °F -1.4 °F 3.0 °F 62% 30.42 in 10.0 mi NW 15.0 mph 18.4 mph 0.00 in   Mostly Cloudy
3:56 PM 14.0 °F 1.2 °F 2.1 °F 59% 30.44 in 10.0 mi NW 10.4 mph - 0.00 in   Mostly Cloudy
4:56 PM 14.0 °F 1.2 °F 0.1 °F 54% 30.45 in 10.0 mi NW 10.4 mph - 0.00 in   Mostly Cloudy
5:56 PM 13.1 °F 1.8 °F 4.1 °F 67% 30.47 in 10.0 mi NNW 8.1 mph - 0.00 in Snow Light Snow
6:56 PM 11.1 °F 4.9 °F 5.0 °F 76% 30.49 in 10.0 mi North 3.5 mph - 0.00 in Snow Light Snow
7:56 PM 11.1 °F 0.4 °F 6.1 °F 80% 30.51 in 5.0 mi North 6.9 mph - 0.00 in Snow Light Snow
8:56 PM 10.0 °F 1.8 °F 7.2 °F 88% 30.52 in 4.0 mi WNW 4.6 mph - 0.00 in Snow Light Snow
9:56 PM 9.1 °F -3.0 °F 3.0 °F 76% 30.53 in 10.0 mi WNW 8.1 mph - 0.00 in Snow Light Snow
10:56 PM 8.1 °F -3.2 °F 1.0 °F 73% 30.54 in 10.0 mi West 6.9 mph - 0.00 in   Overcast
11:56 PM 3.0 °F - -0.9 °F 84% 30.53 in 10.0 mi Calm Calm - 0.00 in   Overcast